Tracking 29495 objects as of 7-Sep-2024
HD Live streaming from Space Station
objects crossing your sky now

ONEWEB-0597

Track ONEWEB-0597 now!
10-day predictions
ONEWEB-0597 is classified as:


NORAD ID: 54663
Int'l Code: 2022-166X
Perigee: 1,183.7 km
Apogee: 1,186.1 km
Inclination: 87.9 °
Period: 108.9 minutes
Semi major axis: 7555 km
RCS: Unknown
Launch date: December 8, 2022
Source: United Kingdom (UK)
Launch site: AIR FORCE EASTERN TEST RANGE (AFETR)
Your satellite tracking list
Your tracking list is empty




NASA's NSSDC Master Catalog

Two Line Element Set (TLE):
1 54663U 22166X   24250.41688788  .00000007  00000-0 -13399-4 0  9991
2 54663  87.9356  13.1462 0001572  86.7771 273.3543 13.21822094 85835
Source of the keplerian elements: AFSPC